Simultaneous Nadir Overpasses (SNOs) Predictions

Prediction of SNOs between METOP-A and TERRA Satellite Orbit:

Table of predicted SNOs for the next 14.0 days since TLE Epoch: 9/8/2018
Index Date (METOP-A) Time (METOP-A) Lat,Lon (METOP-A) SZA (METOP-A ) Date (TERRA) Time (TERRA) Lat,Lon (TERRA) SZA (TERRA ) Distance(km) Time Diff (sec)
1 09/10/2018 05:58:31 -81.43, -40.07 100.41 09/10/2018 05:58:43 -81.43, -40.07 100.40 0.25 12
2 09/10/2018 06:49:11 81.43, 127.44 79.63 09/10/2018 06:48:10 81.42, 127.33 79.58 2.10 61
3 09/13/2018 01:32:47 -81.43, 26.42 99.31 09/13/2018 01:32:57 -81.43, 26.39 99.30 0.57 10
4 09/13/2018 02:23:27 81.43,-166.09 80.73 09/13/2018 02:22:24 81.42,-166.23 80.68 2.57 63
5 09/15/2018 21:07:03 -81.43, 92.89 98.20 09/15/2018 21:07:11 -81.43, 92.83 98.20 1.10 8
6 09/15/2018 21:57:43 81.43, -99.63 81.84 09/15/2018 21:56:37 81.43, -99.43 81.83 3.36 66
7 09/18/2018 16:41:18 -81.43, 159.35 97.09 09/18/2018 16:41:24 -81.43, 159.23 97.10 1.97 6
8 09/18/2018 17:31:58 81.43, -33.18 82.95 09/18/2018 17:30:50 81.43, -33.05 82.93 2.10 68
9 09/21/2018 12:15:34 -81.43,-134.21 95.97 09/21/2018 12:15:38 -81.42,-134.41 95.99 3.20 4




NCC Satellite Simultaneous Nadir Overpasses (SNOs) Prediction Service
